When you browse on this site, cookies collect data to enhance your experience and personalize the content and advertising you see.
Visit our Privacy Policy to learn more. By continuing to use the site, you agree to this use of cookies and data.
  • Em Portugal
  • Lista de países
  • Para 7 dias
  • Temperatura da água
  • Mapa do tempo
  • Widgets de tempo
  • user-avatar
    Iniciar Sessão

    Previsão horária em Canillo

    Hoje, 23 Outubro, Quarta-feira

    Tempo Temperatura Precipitação Vento Pressão Humidade
    00:00 +7°C° 0 mm 2 m/s 612 mmHg 97%
    01:00 +7°C° 6.6 mm 2 m/s 612 mmHg 96%
    02:00 +7°C° 6.6 mm 2 m/s 611 mmHg 96%
    03:00 +8°C° 6.6 mm 1 m/s 610 mmHg 96%
    04:00 +8°C° 1.8 mm 1 m/s 610 mmHg 96%
    05:00 +7°C° 1.8 mm 2 m/s 610 mmHg 97%
    06:00 +7°C° 0 mm 2 m/s 611 mmHg 97%
    07:00 +8°C° 0.6 mm 2 m/s 611 mmHg 95%
    08:00 +8°C° 0.6 mm 2 m/s 612 mmHg 93%
    09:00 +8°C° 0.6 mm 2 m/s 612 mmHg 90%
    10:00 +9°C° 0.1 mm 2 m/s 612 mmHg 82%
    11:00 +10°C° 0.1 mm 2 m/s 612 mmHg 73%
    12:00 +10°C° 0 mm 2 m/s 612 mmHg 59%
    13:00 +10°C° 0.1 mm 2 m/s 612 mmHg 61%
    14:00 +9°C° 0.1 mm 2 m/s 612 mmHg 63%
    15:00 +9°C° 0.1 mm 2 m/s 612 mmHg 65%
    16:00 +7°C° 0.2 mm 2 m/s 611 mmHg 74%
    17:00 +6°C° 0.2 mm 2 m/s 611 mmHg 83%
    18:00 +5°C° 0.2 mm 1 m/s 611 mmHg 92%
    19:00 +5°C° 0.3 mm 1 m/s 611 mmHg 92%
    20:00 +5°C° 0.3 mm 1 m/s 611 mmHg 92%
    21:00 +5°C° 0.3 mm 1 m/s 612 mmHg 92%
    22:00 +4°C° 0.1 mm 1 m/s 612 mmHg 92%
    23:00 +3°C° 0.1 mm 1 m/s 612 mmHg 93%

    Amanhã, 24 Outubro, Quinta-feira

    Tempo Temperatura Precipitação Vento Pressão Humidade
    00:00 +3°C° 0.1 mm 1 m/s 612 mmHg 93%
    01:00 +2°C° 0 mm 1 m/s 612 mmHg 91%
    02:00 +2°C° 0 mm 1 m/s 612 mmHg 89%
    03:00 +2°C° 0 mm 1 m/s 612 mmHg 88%
    04:00 +2°C° 0 mm 1 m/s 612 mmHg 87%
    05:00 +2°C° 0 mm 1 m/s 613 mmHg 86%
    06:00 +1°C° 0 mm 1 m/s 613 mmHg 85%
    07:00 +2°C° 0 mm 0 m/s 614 mmHg 80%
    08:00 +4°C° 0 mm 0 m/s 615 mmHg 75%
    09:00 +6°C° 0 mm 0 m/s 617 mmHg 70%
    10:00 +7°C° 0 mm 1 m/s 617 mmHg 67%
    11:00 +8°C° 0 mm 1 m/s 617 mmHg 63%
    12:00 +8°C° 0 mm 2 m/s 618 mmHg 60%
    13:00 +9°C° 0 mm 1 m/s 618 mmHg 63%
    14:00 +8°C° 0 mm 1 m/s 618 mmHg 66%
    15:00 +8°C° 0 mm 1 m/s 618 mmHg 68%
    16:00 +7°C° 0.1 mm 1 m/s 618 mmHg 76%
    17:00 +6°C° 0.1 mm 1 m/s 618 mmHg 84%
    18:00 +5°C° 0.1 mm 1 m/s 617 mmHg 91%
    19:00 +5°C° 0.1 mm 1 m/s 618 mmHg 91%
    20:00 +5°C° 0.1 mm 1 m/s 618 mmHg 91%
    21:00 +4°C° 0.1 mm 2 m/s 619 mmHg 91%
    22:00 +4°C° 0 mm 2 m/s 619 mmHg 92%
    23:00 +4°C° 0 mm 2 m/s 619 mmHg 92%

    Depois de amanhã, 25 Outubro, Sexta-feira

    Tempo Temperatura Precipitação Vento Pressão Humidade
    00:00 +3°C° 0 mm 2 m/s 619 mmHg 93%
    01:00 +4°C° 0 mm 2 m/s 619 mmHg 93%
    02:00 +4°C° 0 mm 2 m/s 619 mmHg 93%
    03:00 +4°C° 0 mm 2 m/s 619 mmHg 93%
    04:00 +4°C° 0 mm 2 m/s 619 mmHg 93%
    05:00 +4°C° 0 mm 2 m/s 619 mmHg 93%
    06:00 +4°C° 0 mm 2 m/s 619 mmHg 93%
    07:00 +5°C° 0 mm 2 m/s 620 mmHg 86%
    08:00 +7°C° 0 mm 2 m/s 621 mmHg 79%
    09:00 +9°C° 0 mm 2 m/s 622 mmHg 71%
    10:00 +11°C° 0 mm 1 m/s 622 mmHg 65%
    11:00 +12°C° 0 mm 1 m/s 623 mmHg 58%
    12:00 +14°C° 0 mm 1 m/s 623 mmHg 52%
    13:00 +13°C° 0 mm 1 m/s 623 mmHg 55%
    14:00 +13°C° 0 mm 1 m/s 622 mmHg 57%
    15:00 +13°C° 0 mm 1 m/s 622 mmHg 60%
    16:00 +11°C° 0 mm 1 m/s 621 mmHg 65%
    17:00 +9°C° 0 mm 1 m/s 620 mmHg 71%
    18:00 +7°C° 0 mm 1 m/s 620 mmHg 76%
    19:00 +7°C° 0 mm 1 m/s 620 mmHg 68%
    20:00 +7°C° 0 mm 1 m/s 620 mmHg 60%
    21:00 +7°C° 0 mm 1 m/s 620 mmHg 52%
    22:00 +7°C° 0 mm 1 m/s 620 mmHg 50%
    23:00 +7°C° 0 mm 1 m/s 620 mmHg 47%

    26 Outubro, Sábado

    Tempo Temperatura Precipitação Vento Pressão Humidade
    00:00 +7°C° 0 mm 1 m/s 620 mmHg 45%
    01:00 +7°C° 0 mm 1 m/s 619 mmHg 44%
    02:00 +6°C° 0 mm 1 m/s 619 mmHg 43%
    03:00 +6°C° 0 mm 1 m/s 619 mmHg 43%
    04:00 +6°C° 0 mm 1 m/s 619 mmHg 44%
    05:00 +6°C° 0 mm 1 m/s 619 mmHg 46%
    06:00 +6°C° 0 mm 1 m/s 619 mmHg 47%
    07:00 +8°C° 0 mm 1 m/s 620 mmHg 48%
    08:00 +11°C° 0 mm 1 m/s 621 mmHg 49%
    09:00 +13°C° 0 mm 1 m/s 622 mmHg 49%
    10:00 +14°C° 0 mm 1 m/s 622 mmHg 47%
    11:00 +15°C° 0 mm 1 m/s 623 mmHg 45%
    12:00 +16°C° 0 mm 1 m/s 623 mmHg 43%
    13:00 +16°C° 0 mm 1 m/s 623 mmHg 47%
    14:00 +15°C° 0 mm 1 m/s 622 mmHg 51%
    15:00 +15°C° 0 mm 1 m/s 622 mmHg 56%
    16:00 +12°C° 0 mm 1 m/s 621 mmHg 65%
    17:00 +10°C° 0 mm 1 m/s 620 mmHg 74%
    18:00 +8°C° 0 mm 1 m/s 619 mmHg 84%
    19:00 +7°C° 0 mm 1 m/s 619 mmHg 84%
    20:00 +7°C° 0 mm 1 m/s 619 mmHg 85%
    21:00 +7°C° 0 mm 1 m/s 619 mmHg 85%
    22:00 +7°C° 0 mm 1 m/s 619 mmHg 85%
    23:00 +6°C° 0 mm 2 m/s 619 mmHg 85%

    27 Outubro, Domingo

    Tempo Temperatura Precipitação Vento Pressão Humidade
    00:00 +5°C° 0 mm 2 m/s 619 mmHg 85%
    01:00 +5°C° 0 mm 2 m/s 619 mmHg 84%
    02:00 +5°C° 0 mm 2 m/s 619 mmHg 83%
    03:00 +5°C° 0 mm 2 m/s 619 mmHg 82%
    04:00 +5°C° 0 mm 2 m/s 618 mmHg 82%
    05:00 +5°C° 0 mm 2 m/s 618 mmHg 83%
    06:00 +5°C° 0 mm 2 m/s 618 mmHg 83%
    07:00 +8°C° 0 mm 1 m/s 619 mmHg 77%
    08:00 +10°C° 0 mm 1 m/s 620 mmHg 71%
    09:00 +12°C° 0 mm 1 m/s 621 mmHg 65%
    10:00 +13°C° 0 mm 1 m/s 621 mmHg 61%
    11:00 +14°C° 0 mm 1 m/s 622 mmHg 56%
    12:00 +15°C° 0 mm 1 m/s 622 mmHg 52%
    13:00 +15°C° 0 mm 1 m/s 622 mmHg 55%
    14:00 +14°C° 0 mm 1 m/s 621 mmHg 58%
    15:00 +14°C° 0 mm 1 m/s 621 mmHg 62%
    16:00 +12°C° 0 mm 1 m/s 620 mmHg 70%
    17:00 +10°C° 0 mm 1 m/s 619 mmHg 79%
    18:00 +8°C° 0 mm 1 m/s 618 mmHg 87%
    19:00 +7°C° 0 mm 1 m/s 618 mmHg 87%
    20:00 +7°C° 0 mm 1 m/s 618 mmHg 86%
    21:00 +7°C° 0 mm 1 m/s 618 mmHg 86%
    22:00 +7°C° 0 mm 1 m/s 618 mmHg 86%
    23:00 +7°C° 0 mm 1 m/s 618 mmHg 85%

    28 Outubro, Segunda-feira

    Tempo Temperatura Precipitação Vento Pressão Humidade
    00:00 +7°C° 0 mm 1 m/s 618 mmHg 85%
    01:00 +7°C° 0 mm 1 m/s 618 mmHg 84%
    02:00 +6°C° 0 mm 1 m/s 617 mmHg 84%
    03:00 +6°C° 0 mm 1 m/s 617 mmHg 84%
    04:00 +6°C° 0 mm 1 m/s 617 mmHg 81%
    05:00 +7°C° 0 mm 1 m/s 617 mmHg 77%
    06:00 +7°C° 0 mm 1 m/s 617 mmHg 74%
    07:00 +8°C° 0 mm 1 m/s 617 mmHg 70%
    08:00 +10°C° 0 mm 1 m/s 618 mmHg 66%
    09:00 +11°C° 0 mm 0 m/s 619 mmHg 62%
    10:00 +11°C° 0 mm 0 m/s 619 mmHg 59%
    11:00 +13°C° 0 mm 1 m/s 619 mmHg 57%
    12:00 +14°C° 0 mm 1 m/s 619 mmHg 55%
    13:00 +13°C° 0 mm 1 m/s 619 mmHg 59%
    14:00 +12°C° 0 mm 1 m/s 618 mmHg 63%
    15:00 +12°C° 0 mm 1 m/s 618 mmHg 68%
    16:00 +11°C° 0.1 mm 1 m/s 618 mmHg 72%
    17:00 +10°C° 0.1 mm 1 m/s 617 mmHg 77%
    18:00 +9°C° 0.1 mm 1 m/s 617 mmHg 82%
    19:00 +8°C° 0 mm 1 m/s 617 mmHg 82%
    20:00 +8°C° 0 mm 1 m/s 617 mmHg 82%
    21:00 +8°C° 0 mm 1 m/s 617 mmHg 82%
    22:00 +8°C° 0 mm 1 m/s 617 mmHg 81%
    23:00 +7°C° 0 mm 1 m/s 616 mmHg 81%

    29 Outubro, Terça-feira

    Tempo Temperatura Precipitação Vento Pressão Humidade
    00:00 +7°C° 0 mm 1 m/s 616 mmHg 80%
    01:00 +7°C° 0 mm 1 m/s 616 mmHg 80%
    02:00 +7°C° 0 mm 1 m/s 616 mmHg 79%
    03:00 +6°C° 0 mm 1 m/s 615 mmHg 78%
    04:00 +6°C° 0 mm 1 m/s 616 mmHg 76%
    05:00 +6°C° 0 mm 1 m/s 616 mmHg 74%
    06:00 +6°C° 0 mm 1 m/s 616 mmHg 72%
    07:00 +8°C° 0 mm 1 m/s 617 mmHg 67%
    08:00 +9°C° 0 mm 0 m/s 617 mmHg 62%
    09:00 +11°C° 0 mm 0 m/s 618 mmHg 56%
    10:00 +12°C° 0 mm 0 m/s 619 mmHg 54%
    11:00 +14°C° 0 mm 1 m/s 619 mmHg 52%
    12:00 +15°C° 0 mm 1 m/s 620 mmHg 49%
    13:00 +15°C° 0.2 mm 1 m/s 619 mmHg 54%
    14:00 +14°C° 0.2 mm 1 m/s 619 mmHg 59%
    15:00 +13°C° 0.2 mm 1 m/s 618 mmHg 63%
    16:00 +12°C° 0.2 mm 1 m/s 618 mmHg 72%
    17:00 +10°C° 0.2 mm 1 m/s 618 mmHg 81%
    18:00 +8°C° 0.2 mm 1 m/s 617 mmHg 90%
    19:00 +8°C° 0 mm 1 m/s 617 mmHg 90%
    20:00 +7°C° 0 mm 1 m/s 618 mmHg 91%
    21:00 +7°C° 0 mm 1 m/s 618 mmHg 91%
    22:00 +7°C° 0 mm 1 m/s 618 mmHg 91%
    23:00 +7°C° 0 mm 1 m/s 618 mmHg 91%
    Mostrar mais